Weather History for Phoenix, AZ

Change the Weather History Date:

Wednesday, February 29, 2012

  Actual Average Record
Temperature  
Mean Temperature 57 °F -  
Max Temperature 70 °F 73 °F 89 °F (1986)
Min Temperature 44 °F 51 °F 31 °F (1964)
Degree Days  
Heating Degree Days 8    
Month to date heating degree days 138  
Growing Degree Days 7 (Base 50)    
Moisture  
Dew Point 26 °F    
Average Humidity 36    
Maximum Humidity 53    
Minimum Humidity 18    
Precipitation  
Precipitation 0.00 in - - ()
Month to date precipitation T  
Year to date precipitation T  
Snow  
Snow 0.00 in - - ()
Month to date snowfall 0.0  
Year to date snowfall 0.0  
Snow Depth 0.00 in    
Sea Level Pressure  
Sea Level Pressure 30.11 in    
Wind  
Wind Speed 3 mph (ESE)    
Max Wind Speed 10 mph    
Max Gust Speed 18 mph    
Visibility 10 miles    
Events      
T = Trace of Precipitation, MM = Missing Value Source: NWS Daily Summary

Daily Weather History Graph

Daily Weather History Graph

Search for Another Location

Airport:

Trip Planner

Search our weather history database for the weather conditions in past years. The results will help you decide how hot, cold, wet, or windy it might be!

Date:

Astronomy

Feb. 29, 2012 Rise Set
Actual Time 6:56 AM MST 6:24 PM MST
Civil Twilight 6:31 AM MST 6:49 PM MST
Nautical Twilight 6:03 AM MST 7:18 PM MST
Astronomical Twilight 5:34 AM MST 7:47 PM MST
Moon 11:13 AM MST (2/29) 12:52 AM MST (2/29)
Length of Visible Light 12h 17m
Length of Day
11h 27m
Waxing Crescent, 48% of the Moon is Illuminated
Feb 29
Waxing Crescent
Feb 29
First Quarter
Mar 8
Full
Mar 14
Last Quarter
Mar 22
New

Hourly Weather History & Observations

Time (MST) Temp. Windchill Dew Point Humidity Pressure Visibility Wind Dir Wind Speed Gust Speed Precip Events Conditions
12:51 AM 50.0 °F - 27.0 °F 41% 30.17 in 10.0 mi Calm Calm - N/A   Partly Cloudy
1:51 AM 50.0 °F - 27.0 °F 41% 30.17 in 10.0 mi Calm Calm - N/A   Partly Cloudy
2:51 AM 48.0 °F - 28.9 °F 48% 30.15 in 10.0 mi East 4.6 mph - N/A   Partly Cloudy
3:51 AM 46.9 °F - 27.0 °F 46% 30.15 in 10.0 mi ESE 3.5 mph - N/A   Partly Cloudy
4:51 AM 46.0 °F - 28.0 °F 50% 30.15 in 10.0 mi Calm Calm - N/A   Partly Cloudy
5:51 AM 45.0 °F 42.6 °F 28.0 °F 52% 30.16 in 10.0 mi ESE 4.6 mph - N/A   Partly Cloudy
6:51 AM 45.0 °F - 27.0 °F 49% 30.16 in 10.0 mi Calm Calm - N/A   Partly Cloudy
7:51 AM 46.9 °F - 27.0 °F 46% 30.17 in 10.0 mi East 3.5 mph - N/A   Partly Cloudy
8:51 AM 51.1 °F - 27.0 °F 39% 30.19 in 10.0 mi East 6.9 mph - N/A   Partly Cloudy
9:51 AM 55.0 °F - 27.0 °F 34% 30.19 in 10.0 mi East 5.8 mph - N/A   Partly Cloudy
10:51 AM 57.9 °F - 27.0 °F 31% 30.18 in 10.0 mi Calm Calm - N/A   Partly Cloudy
11:51 AM 61.0 °F - 26.1 °F 26% 30.16 in 10.0 mi Calm Calm - N/A   Partly Cloudy
12:51 PM 62.1 °F - 25.0 °F 24% 30.13 in 10.0 mi Calm Calm - N/A   Partly Cloudy
1:51 PM 63.0 °F - 24.1 °F 23% 30.09 in 10.0 mi NW 5.8 mph - N/A   Partly Cloudy
2:51 PM 64.9 °F - 24.1 °F 21% 30.07 in 10.0 mi North 3.5 mph - N/A   Partly Cloudy
3:51 PM 66.9 °F - 23.0 °F 19% 30.05 in 10.0 mi Calm Calm - N/A   Partly Cloudy
4:51 PM 69.1 °F - 24.1 °F 18% 30.04 in 10.0 mi SW 6.9 mph - N/A   Scattered Clouds
5:51 PM 66.9 °F - 24.1 °F 20% 30.03 in 10.0 mi South 5.8 mph - N/A   Scattered Clouds
6:51 PM 64.9 °F - 23.0 °F 20% 30.03 in 10.0 mi WNW 8.1 mph - N/A   Partly Cloudy
7:51 PM 64.0 °F - 21.9 °F 20% 30.04 in 10.0 mi NW 8.1 mph - N/A   Partly Cloudy
8:51 PM 61.0 °F - 24.1 °F 24% 30.05 in 10.0 mi Calm Calm - N/A   Partly Cloudy
9:51 PM 61.0 °F - 24.1 °F 24% 30.04 in 10.0 mi Calm Calm - N/A   Partly Cloudy
10:51 PM 55.9 °F - 28.0 °F 34% 30.04 in 10.0 mi SW 3.5 mph - N/A   Partly Cloudy
11:51 PM 55.9 °F - 28.0 °F 34% 30.03 in 10.0 mi Calm Calm - N/A   Partly Cloudy